Tracking 19485 objects as of 22-Jan-2019
HD Live streaming from Space Station
objects crossing your sky now

COSMOS 2092

Track COSMOS 2092 now!
10-day predictions
COSMOS 2092 is classified as:


NORAD ID: 20737
Int'l Code: 1990-070C
Perigee: 1,413.1 km
Apogee: 1,420.1 km
Inclination: 82.6 °
Period: 114.0 minutes
Semi major axis: 7787 km
RCS: 1.1992 m2 (large)
Launch date: August 8, 1990
Source: Commonwealth of Independent States (former USSR) (CIS)
Launch site: PLESETSK MISSILE AND SPACE COMPLEX (PKMTR)
aabbcc
Your satellite tracking list
Your tracking list is empty




NASA's NSSDC Master Catalog

Two Line Element Set (TLE):
1 20737U 90070C   19020.66733972 +.00000033 +00000-0 +12436-3 0  9995
2 20737 082.5664 236.9051 0004436 145.4312 274.7567 12.63273687311867
Source of the keplerian elements: AFSPC